Biloxi Weather Center

Moon Phase Calendar



Online Cameras

 


      

Current Conditions in D'Iberville
7/27/2021 10:26:36 PM

80°F
Feels Like 86
Clear
Humidity
83%
Pressure
29.97"
Wind
0
Dew Point
75°F
UV Index
0/10 (Low)
Visibility
6 mi

Hourly Forecast

Date & Time Tue, Jul 27
10:00 PM
Tue, Jul 27
11:00 PM
Wed, Jul 28
12:00 AM
Wed, Jul 28
1:00 AM
Wed, Jul 28
2:00 AM
Wed, Jul 28
3:00 AM
Wed, Jul 28
4:00 AM
Wed, Jul 28
5:00 AM
Wed, Jul 28
6:00 AM
Wed, Jul 28
7:00 AM
Wed, Jul 28
8:00 AM
Wed, Jul 28
9:00 AM
Wed, Jul 28
10:00 AM
Wed, Jul 28
11:00 AM
Wed, Jul 28
12:00 PM
Wed, Jul 28
1:00 PM
Wed, Jul 28
2:00 PM
Wed, Jul 28
3:00 PM
Wed, Jul 28
4:00 PM
Wed, Jul 28
5:00 PM
Wed, Jul 28
6:00 PM
Wed, Jul 28
7:00 PM
Wed, Jul 28
8:00 PM
Wed, Jul 28
9:00 PM
Wed, Jul 28
10:00 PM
Wed, Jul 28
11:00 PM
Thu, Jul 29
12:00 AM
Thu, Jul 29
1:00 AM
Thu, Jul 29
2:00 AM
Thu, Jul 29
3:00 AM
Thu, Jul 29
4:00 AM
Thu, Jul 29
5:00 AM
Thu, Jul 29
6:00 AM
Thu, Jul 29
7:00 AM
Thu, Jul 29
8:00 AM
Thu, Jul 29
9:00 AM
Thu, Jul 29
10:00 AM
Thu, Jul 29
11:00 AM
Thu, Jul 29
12:00 PM
Thu, Jul 29
1:00 PM
Thu, Jul 29
2:00 PM
Thu, Jul 29
3:00 PM
Thu, Jul 29
4:00 PM
Thu, Jul 29
5:00 PM
Thu, Jul 29
6:00 PM
Thu, Jul 29
7:00 PM
Thu, Jul 29
8:00 PM
Thu, Jul 29
9:00 PM
Condition
Clear

Clear

Clear

Clear

Clear

Clear

Clear

Clear

Clear

Clear

Rain

Rain

Clear

Clear

Clear

Clear

Clouds

Clouds

Clouds

Clouds

Clouds

Rain

Rain

Rain

Clouds

Clouds

Clouds

Clouds

Clouds

Clouds

Clouds

Rain

Rain

Clouds

Clouds

Clouds

Clouds

Clouds

Clouds

Clouds

Clouds

Rain

Clouds

Clouds

Clouds

Clouds

Clouds

Clouds
Temperature 80°F81°F81°F81°F81°F80°F79°F79°F78°F79°F81°F84°F87°F90°F91°F91°F91°F88°F88°F88°F87°F85°F81°F78°F78°F78°F78°F78°F78°F78°F78°F77°F77°F78°F80°F83°F86°F89°F91°F92°F92°F88°F86°F88°F88°F87°F84°F83°F
Feels Like 86°F86°F86°F86°F85°F85°F79°F80°F80°F80°F87°F92°F95°F98°F100°F99°F98°F95°F95°F96°F95°F93°F87°F80°F79°F79°F79°F79°F79°F79°F79°F79°F78°F79°F80°F89°F93°F97°F101°F102°F101°F96°F95°F97°F98°F97°F93°F91°F
Cloudiness 1%2%2%2%0%0%0%1%2%2%1%1%2%2%3%3%34%37%37%32%29%24%62%81%87%91%92%93%100%100%100%100%98%95%47%62%66%71%71%67%75%87%91%88%78%67%31%41%
Visibility 6 mi6 mi6 mi6 mi6 mi6 mi6 mi6 mi6 mi6 mi6 mi6 mi6 mi6 mi6 mi6 mi6 mi6 mi6 mi6 mi6 mi6 mi6 mi6 mi6 mi6 mi6 mi6 mi6 mi6 mi6 mi6 mi6 mi6 mi6 mi6 mi6 mi6 mi6 mi6 mi6 mi6 mi6 mi6 mi6 mi6 mi6 mi6 mi
Precipitation 3%3%5%4%0%0%0%0%0%0%32%32%11%23%19%19%1%0%0%3%31%33%63%69%75%74%66%64%32%20%28%39%45%44%9%31%33%33%33%33%13%30%10%4%5%6%22%34%
Humidity 83%82%81%81%80%81%83%86%88%86%80%72%62%57%56%54%55%60%61%62%66%71%80%85%83%81%82%82%82%83%85%87%88%86%80%72%64%59%57%55%56%65%69%67%66%71%75%77%
Dew Point 75°F75°F74°F74°F74°F74°F74°F74°F74°F74°F74°F74°F73°F72°F72°F71°F71°F72°F73°F73°F74°F75°F75°F73°F72°F72°F72°F72°F72°F72°F73°F73°F73°F73°F73°F73°F73°F73°F73°F73°F73°F74°F75°F75°F75°F76°F75°F75°F
Pressure 29.97"29.97"29.97"30"29.97"29.97"29.97"29.97"30"30"30.03"30.03"30.03"30.03"30.03"30"29.97"29.97"29.97"29.94"29.94"29.94"30"29.97"30"29.97"29.97"29.97"29.97"29.94"29.94"29.97"29.97"30"30.03"30.03"30.03"30.03"30.03"30"30"29.97"29.97"29.97"29.97"29.97"29.97"30"
Wind Speed 6.6 mph6.7 mph6.5 mph6 mph5.6 mph5.3 mph5.3 mph5.1 mph4.6 mph4.2 mph4.1 mph3.7 mph2.5 mph0.5 mph3.7 mph5.9 mph8.4 mph9.8 mph10 mph10.1 mph9.5 mph6.1 mph3.1 mph3 mph0.9 mph1.4 mph1.3 mph2 mph0.8 mph2.2 mph3.1 mph4.2 mph4.2 mph3.8 mph4.2 mph4.2 mph3.8 mph3 mph4 mph5.4 mph7.4 mph8.8 mph7.1 mph6.3 mph6.2 mph4.9 mph5.5 mph6.3 mph
Wind
Direction
181°
S
197°
SSW
204°
SSW
215°
SW
227°
SW
240°
WSW
266°
W
281°
W
299°
WNW
308°
NW
313°
NW
318°
NW
323°
NW
210°
SSW
181°
S
180°
S
180°
S
188°
S
188°
S
187°
S
201°
SSW
246°
WSW
15°
NNE
59°
ENE
290°
WNW
309°
NW
61°
ENE
116°
ESE
150°
SSE
285°
WNW
316°
NW
325°
NW
321°
NW
319°
NW
324°
NW
326°
NW
317°
NW
285°
WNW
242°
WSW
217°
SW
202°
SSW
206°
SSW
211°
SSW
216°
SW
213°
SSW
210°
SSW
215°
SW
227°
SW

Daily Forecast

Date High Low Precip. Humidity
Today
Jul 27

Clouds
91 °F
78 °F
3%
54%
Wednesday
Jul 28

Rain
91 °F
78 °F
75%
54%
Thursday
Jul 29

Rain
92 °F
77 °F
66%
55%
Friday
Jul 30

Rain
94 °F
79 °F
56%
52%
Saturday
Jul 31

Rain
93 °F
77 °F
77%
53%
Sunday
Aug 1

Rain
92 °F
78 °F
75%
56%
Monday
Aug 2

Rain
91 °F
78 °F
90%
57%
Tuesday
Aug 3

Rain
85 °F
78 °F
100%
73%
Wednesday
Aug 4

Rain
90 °F
75 °F
57%
53%
Thursday
Aug 5

Rain
89 °F
79 °F
65%
52%
Friday
Aug 6

Rain
89 °F
79 °F
99%
58%
Saturday
Aug 7

Rain
90 °F
78 °F
72%
60%
Sunday
Aug 8

Rain
90 °F
79 °F
83%
59%
Monday
Aug 9

Rain
91 °F
79 °F
93%
57%
Tuesday
Aug 10

Rain
90 °F
76 °F
100%
60%
Wednesday
Aug 11

Rain
84 °F
76 °F
100%
72%

Temperature 8-14 Day Outlook



Precipitation 8-14 Day Outlook




Quick Links
Biloxi News
Biloxi Photos
Biloxi Videos




About Us
Contact Us
Site Map
Search Site
Advertise With Us
   
Biloxi.USGulf.info
THE BILOXI WEBSITE

Copyright 2021, Coastal Town
Privacy    |    Legal